Regional Weather Roundup
Issued by NWS

Home | Current Version | Previous Version | Graphics & Text | Print | Product List | Glossary On
Versions: 1 2 3 4 5 6 7 8 9 10 11 12 13 14 15 16 17 18 19 20 21 22 23 24 25 26 27 28 29 30 31 32 33 34 35 36 37 38 39 40 41 42 43 44 45 46 47 48 49 50
000
ASUS43 KLSX 191507
RWRMO

WEATHER SUMMARY FOR MISSOURI
NATIONAL WEATHER SERVICE SPRINGFIELD MO
1000 AM CDT FRI SEP 19 2014

NOTE: "FAIR" INDICATES FEW OR NO CLOUDS BELOW 12,000 FEET WITH NO
       SIGNIFICANT WEATHER AND/OR OBSTRUCTIONS TO VISIBILITY.
       CURRENT SKY AND/OR WEATHER CONDITIONS ARE NOT AVAILABLE FOR
       CHILLICOTHE AND FARMINGTON.

MOZ001>031-035>038-043-044-053-054-191600-
...NORTHERN AND WESTERN MISSOURI...

CITY           SKY/WX    TMP DP  RH WIND       PRES   REMARKS
KANSAS CTY INT CLOUDY    64  63  96 S9        30.03S FOG
KANSAS C DTWN  CLOUDY    66  63  90 S8        30.03S FOG
LEE`S SUMMIT   CLOUDY    63  61  93 S8        30.05S FOG
ST JOSEPH      CLOUDY    65  62  90 S10       30.02S
CHILLICOTHE      N/A     67  61  81 SE7       30.05F

$$
MOZ066>068-077>081-088>096-101>105-191600-
...SOUTHWEST MISSOURI...

CITY           SKY/WX    TMP DP  RH WIND       PRES   REMARKS
SPRINGFIELD    SUNNY     68  61  78 S13       30.07R
JOPLIN         SUNNY     71  65  81 S7        30.04R

$$
MOZ032>034-039>042-045>050-055>058-069>072-191600-
...CENTRAL MISSOURI...

CITY           SKY/WX    TMP DP  RH WIND       PRES   REMARKS
COLUMBIA       SUNNY     66  58  75 SE7       30.09S
JEFFERSON CITY SUNNY     65  57  75 SE6       30.09S
ROLLA          SUNNY     65  57  75 SE8       30.09R
SEDALIA        MOSUNNY   68  61  78 SE12      30.07F HAZE
OSAGE BEACH    SUNNY     64  59  82 SE6       30.09R

$$
MOZ051-052-059>065-191600-
...EAST CENTRAL MISSOURI...

CITY           SKY/WX    TMP DP  RH WIND       PRES   REMARKS
ST LOUIS INTL  MOSUNNY   68  55  63 E8        30.12R
SPIRIT OF STL  SUNNY     67  56  67 SE3       30.10S
ST CHARLES     SUNNY     66  56  70 SE6       30.11S

$$
MOZ072>076-082>087-097>100-106>115-191600-
...SOUTH CENTRAL AND SOUTHEAST MISSOURI...

CITY           SKY/WX    TMP DP  RH WIND       PRES   REMARKS
CAPE GIRARDEAU SUNNY     69  59  70 NE5       30.09R
FARMINGTON     SUNNY     66  57  72 CALM      30.12R
POPLAR BLUFF   SUNNY     69  56  62 NE5       30.07R
WEST PLAINS    SUNNY     65  58  78 SE5       30.10R

$$


USA.gov is the U.S. government's official web portal to all federal, state and local government web resources and services.